Location: Larrial
(48.2758°N, 4.5331°W)
Time: 09:26:31
(UTC+00:00)

Cosmos 1980 Rocket - Pass Details

Date: 09 April 2020
Orbit: 829 x 850 km, 71.0° (Epoch: 24 May)

Event Time Altitude Azimuth Distance (km) Brightness Sun altitude
Rises 21:35:16 0° 335° (NNW) 3,389 6.5 -23.1°
Reaches altitude 10° 21:37:50 10° 341° (NNW) 2,454 5.5 -23.4°
Maximum altitude 21:43:12 45° 54° (NE) 1,136 2.7 -24.1°
Enters shadow 21:44:03 42° 78° (ENE) 1,185 2.7 -24.2°
